Lid_Strength_Index
2 2 2 2 2 2 2 2 2 2 2 1 1 0 0 -0 0 2 4 2 0 -3 -1 2 4 4 4 5 5 6 10 11 10 9 6 4 5 3 3 5 5 4 3 3 2
3 3 2 2 2 2 2 3 2 2 2 1 1 1 0 0 3 4 0 -4 -3 -4 2 4 5 5 6 6 6 7 10 10 8 7 6 5 4 4 5 6 6 4 3 2 2
3 2 2 2 2 2 2 3 3 2 2 1 1 1 0 1 4 4 -2 -3 -4 -2 2 2 4 5 7 6 7 7 9 8 7 6 5 5 5 4 5 6 6 5 4 3 2
3 3 2 2 2 2 2 2 2 2 2 1 1 1 1 2 7 2 -2 -2 -3 1 2 3 5 7 8 8 7 8 7 7 7 5 5 5 4 5 4 5 5 4 3 3 3
3 3 3 2 2 2 2 2 2 2 2 2 1 1 2 5 5 -0 -2 -2 2 3 4 4 5 7 8 7 7 8 7 6 6 5 6 5 6 5 5 4 3 2 3 3 3
3 3 3 2 2 2 2 2 1 1 2 2 2 1 4 7 1 0 1 2 3 4 4 4 4 4 7 7 7 7 6 7 6 6 6 7 6 5 4 3 3 3 3 3 3
4 4 3 3 2 2 1 1 1 1 1 1 1 2 4 5 1 1 2 3 3 3 4 3 3 4 5 8 6 6 8 7 6 6 7 6 8 6 4 3 4 3 3 3 2
4 4 4 3 3 2 1 1 1 1 0 -0 -0 2 6 1 1 2 2 2 2 2 2 2 2 4 5 5 8 8 8 10 8 6 7 7 10 6 4 5 5 4 3 3 2
4 4 4 4 3 2 2 2 1 -1 -0 -0 1 2 5 2 4 2 1 3 3 2 2 2 3 5 5 7 9 9 12 11 10 6 6 7 9 6 4 4 5 4 4 3 3
4 4 4 4 3 2 2 2 -0 1 1 1 1 4 3 4 3 3 2 2 4 4 5 5 6 7 7 8 12 10 10 10 11 7 6 8 8 6 4 4 5 4 4 3 3
4 4 4 3 3 3 2 0 3 4 2 4 4 4 3 2 2 3 3 3 4 5 7 6 8 10 8 7 7 8 8 8 8 8 7 7 7 8 5 5 5 5 4 4 3
4 4 3 3 3 3 2 3 3 3 5 3 3 3 2 2 4 3 2 5 6 7 6 7 9 7 6 6 7 8 9 9 7 6 7 7 7 6 5 5 4 4 4 4 3
4 4 3 3 3 2 1 2 1 1 5 4 3 3 3 2 4 4 3 4 5 7 7 8 7 5 6 7 7 8 9 9 9 7 6 7 8 7 6 5 4 4 4 3 3
4 4 3 3 2 1 2 1 1 -0 8 6 5 4 3 3 5 2 2 4 5 7 6 7 5 6 7 8 7 9 7 7 8 8 11 7 12 8 7 6 5 4 4 4 3
4 4 3 3 2 2 2 1 1 1 15 6 5 2 3 4 4 4 2 3 6 6 6 8 7 7 8 7 6 8 6 7 8 9 9 9 10 9 7 8 6 5 4 4 3
4 4 4 2 1 2 2 1 1 9 14 7 5 6 5 5 5 4 4 3 4 6 6 6 5 6 6 6 6 6 7 7 7 9 12 10 10 10 8 7 6 5 4 4 3
4 4 4 2 4 2 2 3 9 13 6 8 7 6 6 6 6 6 6 6 8 9 9 8 7 6 5 7 6 7 8 12 13 13 14 9 10 9 7 6 5 5 4 4 3
5 5 2 2 2 2 2 6 12 8 8 6 6 6 8 6 6 6 7 8 6 7 9 10 11 7 6 7 8 8 8 12 16 15 13 9 12 9 6 5 4 4 4 3 3
5 1 2 2 2 1 4 9 9 8 8 8 7 8 8 7 7 7 7 8 7 6 10 10 10 6 6 6 6 8 10 7 11 10 12 11 9 7 6 6 5 5 4 4 3
4 2 3 2 1 2 6 9 7 7 7 7 10 8 9 8 8 8 8 6 7 6 6 8 12 7 6 6 6 7 6 11 11 15 16 12 11 10 8 7 6 5 5 4 3
3 5 3 2 1 4 8 8 8 6 7 8 9 10 9 9 8 9 9 7 7 7 6 7 10 10 7 8 9 8 9 9 9 11 15 16 12 7 7 7 6 5 4 4 4
4 7 3 2 6 5 8 7 8 7 7 8 8 8 9 9 9 9 9 8 7 7 8 7 10 13 10 7 6 7 8 9 13 13 11 12 12 6 6 6 5 5 4 4 3
6 6 3 3 9 9 8 9 7 8 9 9 9 8 8 10 11 9 8 6 6 7 8 8 10 15 12 9 7 9 8 8 9 10 13 14 12 5 5 5 5 5 4 4 3
6 9 6 6 6 9 10 10 10 8 8 8 9 8 9 9 8 10 9 7 6 6 7 7 9 12 15 12 9 12 10 10 12 15 13 13 11 8 7 6 6 6 4 4 4
6 9 8 11 9 9 9 9 10 11 9 8 9 9 9 11 10 10 8 8 7 7 7 8 12 10 10 9 10 11 11 10 11 12 13 11 11 8 7 8 7 6 5 5 4
8 9 8 9 8 9 9 10 10 9 9 9 9 8 7 9 9 11 9 8 9 8 9 8 12 11 12 10 10 11 11 11 11 10 11 10 10 6 6 7 7 6 5 5 5
5 5 7 8 8 10 9 9 9 7 6 6 6 7 7 7 5 5 5 6 6 8 9 10 11 12 15 11 11 13 11 11 10 10 10 12 9 6 7 6 6 6 5 5 4